This is the latest recevied weather packets stored in our database for station/object K4WCH. If no packets are shown the sender has not sent any weather packets the latest 10 day(s).
| Time | Temp. | Humidity | Pressure | Rain* | Wind** | Luminosity | Snow |
|---|---|---|---|---|---|---|---|
| 1788643863 | 27.22° C | 74% | 1012.8 hPa | 0 mm | - | 102 W/m² | - |
| 1788643563 | 26.67° C | 74% | 1013 hPa | 0 mm | - | 101 W/m² | - |
| 1788643262 | 27.22° C | 75% | 1013.2 hPa | 0 mm | - | 96 W/m² | - |
| 1788642958 | 27.22° C | 76% | 1013.3 hPa | 0 mm | - | 89 W/m² | - |
| 1788642653 | 26.67° C | 79% | 1013.3 hPa | 0 mm | - | 78 W/m² | - |
| 1788642349 | 27.22° C | 77% | 1013.2 hPa | 0 mm | - | 67 W/m² | - |
| 1788642044 | 30.56° C | 73% | 1013.2 hPa | 0 mm | - | 57 W/m² | - |
| 1788641743 | 30.56° C | 71% | 1012.6 hPa | 0 mm | - | 71 W/m² | - |
| 1788641443 | 30.56° C | 70% | 1012.8 hPa | 0 mm | - | 64 W/m² | - |
| 1788641138 | 30.56° C | 69% | 1012.8 hPa | 0 mm | - | 67 W/m² | - |
| 1788640833 | 31.11° C | 68% | 1012.5 hPa | 0 mm | - | 69 W/m² | - |
| 1788640532 | 31.67° C | 65% | 1012.7 hPa | 0 mm | - | 66 W/m² | - |
| 1788640228 | 33.33° C | 61% | 1012.6 hPa | 0 mm | - | 74 W/m² | - |
| 1788639923 | 33.89° C | 61% | 1012.3 hPa | 0 mm | - | 114 W/m² | - |
| 1788639618 | 34.44° C | 60% | 1012.3 hPa | 0 mm | - | 139 W/m² | - |
| 1788639314 | 34.44° C | 56% | 1012.4 hPa | 0 mm | - | 159 W/m² | - |
| 1788639013 | 35° C | 55% | 1012.4 hPa | 0 mm | - | 182 W/m² | - |
| 1788638709 | 35° C | 55% | 1012.4 hPa | 0 mm | - | 364 W/m² | - |
| 1788638408 | 35° C | 54% | 1012.4 hPa | 0 mm | - | 806 W/m² | - |
| 1788638103 | 35° C | 56% | 1012.5 hPa | 0 mm | - | 827 W/m² | - |
| 1788637798 | 34.44° C | 57% | 1012.4 hPa | 0 mm | - | 834 W/m² | - |
| 1788637498 | 35° C | 54% | 1012.6 hPa | 0 mm | - | 171 W/m² | - |
| 1788637197 | 34.44° C | 58% | 1012.7 hPa | 0 mm | - | 837 W/m² | - |
| 1788636892 | 33.33° C | 60% | 1012.8 hPa | 0 mm | - | 923 W/m² | - |
| 1788636587 | 33.89° C | 57% | 1012.7 hPa | 0 mm | - | 133 W/m² | - |
* Rain latest hour (hover to see other rain measurements)
** Current wind speed in m/s (hover to see current wind gust speed)